Regional Weather Roundup
Issued by NWS

Current Version | Previous Version | Text Only | Print | Product List | Glossary On
Versions: 1 2 3 4 5 6 7 8 9 10 11 12 13 14 15 16 17 18 19 20 21 22 23 24 25 26 27 28 29 30 31 32 33 34 35 36 37 38 39 40 41 42 43 44 45 46 47 48 49 50
000
ASCA42 TJSJ 122110
RWRPR
PUERTO RICO/U.S. VIRGIN ISLANDS HOURLY WEATHER ROUNDUP
NATIONAL WEATHER SERVICE SAN JUAN PR
500 PM AST WED DEC 12 2018

PRZ001>002-007>008-010-122200-
PUERTO RICO

CITY           SKY/WX    TMP DP  RH WIND       PRES   REMARKS
SAN JUAN LMM   PTCLDY    82  70  65 NE14      30.02R
AGUADILLA      SUNNY     81  70  69 NE8       30.05R
$$

VIZ001>002-122200-
U.S. VIRGIN ISLANDS

CITY           SKY/WX    TMP DP  RH WIND       PRES   REMARKS
CHARLOTTE AMA  PTCLDY    82  72  69 S5        30.02S
$$

HOURLY WEATHER ROUNDUP FOR THE NEWS MEDIA

CITY           SKY/WX    TMP DP  RH WIND       PRES   REMARKS
ORLANDO        FAIR      65  45  48 NE3       30.23R
NEW YORK       MOCLDY    39  24  55 NW13      30.16R WCI  31
NEWARK         CLOUDY    39  23  52 NW9G20    30.16R WCI  33
CHICAGO        CLOUDY    34  25  69 W15G22    29.77R WCI  24
HARTFORD       FAIR      35  15  44 VRB5      30.09R WCI  31
BOSTON         FAIR      36  10  34 NW17G23   30.11R WCI  26
DALLAS         CLOUDY    65  54  67 S12G23    29.85F
PHILADELPHIA   MOCLDY    42  21  43 NW6       30.17R
LOS ANGELES    PTSUNNY   63  52  67 E7        30.10R
WASHINGTON DC  CLOUDY    43  25  49 S3        30.16R


USA.gov is the U.S. government's official web portal to all federal, state and local government web resources and services.